sat.trackr.live / text

‹ back to catalog

SKYSAT-C4

NORAD 41771 · 2016-058B

PAYLOAD ACTIVE UNKNOWN

§ Identity

Operator
Country
US
Launch date
2016-09-16
Launch site
FRGUI
Launch vehicle
Mass (kg)
RCS (m²)
0.39

Purposes: earth_obs

External: N2YO · Heavens-Above · Gunter

§ Orbital elements

Epoch: 2026-09-09T23:27:53.991072Z

Period
92.84 min
Inclination
96.9158°
Eccentricity
0.0000778
Mean motion
15.51040176 rev/d
Perigee alt
413.2 km
Apogee alt
414.2 km
Semi-major
6,791.8 km
B*
2.6556e-4
RAAN
271.3338°
Arg perigee
42.8778°
Mean anomaly
317.2536°
Rev number
55,860

§ Raw data

SKYSAT-C41 41771U 16058B   26252.97770823  .00015359  00000+0  26556-3 0  99992 41771  96.9158 271.3338 0000778  42.8778 317.2536 15.51040176558606

JSON: /api/v1/satellites/41771 · /tle

For live sub-satellite position, see the globe view (requires WebGL).

§ Visibility from observer

Set your observer location to see the next 7 days of passes ≥ 10°. The values pass through the URL so the page stays shareable.

No JS? Fill the form by hand. The geolocation button needs JavaScript.